Погода в Лицзяне

Китай     23°34′15″N   102°01′11″E
темп.,
°C
ветер,
м/с
пор.,
м/с
влажн.,
%
обл.,
%
осадки,
мм/ч
давл.,
гПа
погр.,
м
9 декабря, чт
чт923:00+13ю22830 0.0 102027
02:00+12ю11870 0.0 102017
05:00+11ю119025 0.0 102018
08:00+11юв128589 0.0 102260
11:00+18в22611 0.0 1022651
14:00+22юз134617 0.0 10181633
17:00+20юз25532 0.0 10161366
20:00+14ююз33770 0.0 101941
10 декабря, пт
пт1023:00+13ююз22780 0.0 102033
02:00+12ююз22821 0.0 101931
05:00+11ююз21860 0.0 101826
08:00+11ююз11880 0.0 101922
11:00+19св12590 0.0 1019813
14:00+22з13477 0.0 10141576
17:00+21зюз23551 0.0 10131062
20:00+14ююз22790 0.0 101637
11 декабря, сб
сб1123:00+13ююз22814 0.0 101826
02:00+12ююз11881 0.0 101818
05:00+11ю11932 0.0 101715
08:00+11ююв11941 0.0 101921
11:00+18всв226723 0.0 1019713
14:00+21в125917 0.3 10151127
17:00+20юв126612 0.6 1014438
20:00+14ю22916 1.0 101827
12 декабря, вс
вс1223:00+13ююв229430 0.1 102039
02:00+12вюв229760 0.3 102046
05:00+11вюв129961 0.3 1020107
08:00+12вюв129573 0.8 1021166
11:00+15всв228777 0.7 1022485
14:00+17в128231 2.3 1018491
17:00+17в227840 1.5 1016538
20:00+13ююв229338 2.1 101924
13 декабря, пн
пн1323:00+14юв129089 0.3 102042
02:00+12ю119591 0.7 101912
05:00+12ю119624 0.6 101814
08:00+11ююв1197100 0.9 101926
11:00+15вюв12856 0.3 1019343
14:00+20ю13659 1.4 10141002
17:00+18ю13676 0.8 1013633
20:00+13ю22924 0.9 101644